AGROMETEOROLOŠKI PORTAL

vinorodna pokrajina

Temelj dobrega kmetovanja

Pregled podatkov za lokacijo Stročja vas, meteorološka postaja 42838

Pregled senzorjev na lokaciji

ID Ime Zadnja
vrednost
Datum in čas
meritve
(lokalni čas)
Tip
senzorja
6577 Omočenost lista (1,5 m) (U) 0 U 4.10.2022 15:30 A730WET
6578 Padavine (mm) 0 mm 4.10.2022 15:30 Generic 0.2 mm
6572 Relativna zračna vlaga (2 m) (%RH) 62 %RH 4.10.2022 15:30 50YA
6571 Temperatura (2 m) (°C) 18,5 °C 4.10.2022 15:30 50YA
6581 Hitrost vetra (3 m) (km/h) 2 km/h 4.10.2022 15:30 Generic 100 km/h

Pregled podatkov zadnjih 24 ur

Zap.
št.
Datum in čas
(lokalni čas)
Stročja vas
Omočenost
lista
(1,5
m)
Padavine Relativna
zračna
vlaga
(2
m)
Temperatura
(2
m)
Hitrost
vetra
(3
m)
1 4.10.2022 15:30 0 0 62,2 18,5 2,1
2 4.10.2022 15:00 0 0 61,3 18,4 2,2
3 4.10.2022 14:30 0 0 64 18,7 2,4
4 4.10.2022 14:00 0 0 60 18,3 2,2
5 4.10.2022 13:30 0 0 60,7 18,3 2,5
6 4.10.2022 13:00 0 0 61,6 18,2 2,2
7 4.10.2022 12:30 0 0 63,1 17,7 2,5
8 4.10.2022 12:00 0 0 65,7 17,4 2,5
9 4.10.2022 11:30 0 0 61,9 16,6 1,6
10 4.10.2022 11:00 0 0 62 15,3 2
11 4.10.2022 10:30 0 0 62,2 14,1 2
12 4.10.2022 10:00 0 0 61,5 12,9 1,7
13 4.10.2022 09:30 0 0 60,4 11,3 1,9
14 4.10.2022 09:00 0 0 58,8 11,7 1,7
15 4.10.2022 08:30 0 0 61,5 11 1,8
16 4.10.2022 08:00 0 0 61,4 9,9 1,8
17 4.10.2022 07:30 0 0 66,9 9,5 1,5
18 4.10.2022 07:00 0 0 60,7 8 1,5
19 4.10.2022 06:30 0 0 62,7 7 0,7
20 4.10.2022 06:00 0 0 63,8 7,6 0,8
21 4.10.2022 05:30 0 0 68,2 8,1 0,7
22 4.10.2022 05:00 0 0 65,9 7,8 1
23 4.10.2022 04:30 0 0 66,6 7,9 0,8
24 4.10.2022 04:00 0 0 63,1 8,6 1,1
25 4.10.2022 03:30 0 0 62,5 9 1,2
26 4.10.2022 03:00 0 0 66,4 9 1,7
27 4.10.2022 02:30 0 0 63,5 8 1,9
28 4.10.2022 02:00 0 0 65,2 8,4 2
29 4.10.2022 01:30 0 0 68,2 8,2 1,8
30 4.10.2022 01:00 0 0 65,5 8,7 2
31 4.10.2022 00:30 0 0 64,5 9 1,7
32 4.10.2022 00:00 0 0 62,1 9,3 1,5
33 3.10.2022 23:30 0 0 64,6 9,3 1,4
34 3.10.2022 23:00 0 0 59,5 10 1
35 3.10.2022 22:30 0 0 58,4 10 1
36 3.10.2022 22:00 0 0 59,4 11,2 1,2
37 3.10.2022 21:30 0 0 57,3 10,8 1,2
38 3.10.2022 21:00 0 0 59 12,1 1,1
39 3.10.2022 20:30 0 0 59,6 12,4 1,4
40 3.10.2022 20:00 0 0 59,7 12,3 1,7
41 3.10.2022 19:30 0 0 62,2 13,9 1,8
42 3.10.2022 19:00 0 0 57,9 15,1 2,2
43 3.10.2022 18:30 0 0 65,4 15,8 2,2
44 3.10.2022 18:00 0 0 60,1 16,4 1,8
45 3.10.2022 17:30 0 0 65,7 17,4 2,5
46 3.10.2022 17:00 0 0 62,6 17,8 2,9